Beatrice, NE

7:02 AM CDT on May 24, 2017 (GMT -0500)
Beatrice Municipal

Weather History for KBIE - April, 2013

Change the Weather History Date:

Saturday, April 6, 2013

  Actual Average Record
Temperature  
Mean Temperature 62 °F -  
Max Temperature 72 °F 65 °F 89 °F (1972)
Min Temperature 51 °F 35 °F 16 °F (1982)
Degree Days  
Heating Degree Days 2    
Growing Degree Days 12 (Base 50)    
Moisture  
Dew Point 36 °F    
Average Humidity 41    
Maximum Humidity 64    
Minimum Humidity 24    
Precipitation  
Precipitation 0.00 in - - ()
Sea Level Pressure  
Sea Level Pressure 29.70 in    
Wind  
Wind Speed 14 mph (WSW)    
Max Wind Speed 24 mph    
Max Gust Speed 32 mph    
Visibility 10 miles    
Events      
Averages and records for this station are not official NWS values.
T = Trace of Precipitation, MM = Missing Value Source: NWS Daily Summary

Daily Weather History Graph

Daily Weather History Graph

Search for Another Location

Airport or City:

Trip Planner

Search our weather history database for the weather conditions in past years. The results will help you decide how hot, cold, wet, or windy it might be!

Date:

Astronomy

Apr. 06, 2013 Rise Set
Actual Time 7:02 AM CDT 7:56 PM CDT
Civil Twilight 6:34 AM CDT 8:24 PM CDT
Nautical Twilight 6:01 AM CDT 8:57 PM CDT
Astronomical Twilight 5:27 AM CDT 9:31 PM CDT
Moon 4:47 AM CDT (4/6) 4:26 PM CDT (4/6)
Length of Visible Light 13h 49m
Length of Day
12h 54m
Waning Crescent, 15% of the Moon is Illuminated
Apr 6
Waning Crescent
Apr 10
New
Apr 18
First Quarter
Apr 25
Full
May 2
Last Quarter

Hourly Weather History & Observations

Time (CDT) Temp. Dew Point Humidity Pressure Visibility Wind Dir Wind Speed Gust Speed Precip Events Conditions
12:15 AM 60.6 °F 34.0 °F 37% 29.72 in 10.0 mi South 16.1 mph 25.3 mph N/A   Clear
12:35 AM 60.3 °F 34.2 °F 38% 29.73 in 10.0 mi South 12.7 mph 23.0 mph N/A   Clear
12:55 AM 60.1 °F 34.9 °F 39% 29.73 in 10.0 mi South 12.7 mph 23.0 mph N/A   Scattered Clouds
1:15 AM 59.9 °F 35.8 °F 41% 29.72 in 10.0 mi South 17.3 mph - N/A   Scattered Clouds
1:35 AM 59.4 °F 36.5 °F 43% 29.72 in 10.0 mi South 15.0 mph 26.5 mph N/A   Clear
1:55 AM 59.0 °F 36.9 °F 44% 29.71 in 10.0 mi South 15.0 mph 24.2 mph N/A   Clear
2:15 AM 58.3 °F 37.4 °F 46% 29.71 in 10.0 mi South 16.1 mph 19.6 mph N/A   Clear
2:35 AM 57.9 °F 37.8 °F 47% 29.69 in 10.0 mi South 16.1 mph - N/A   Clear
2:55 AM 57.7 °F 38.3 °F 48% 29.68 in 10.0 mi South 16.1 mph - N/A   Clear
3:15 AM 57.2 °F 38.7 °F 50% 29.68 in 10.0 mi South 12.7 mph - N/A   Scattered Clouds
3:35 AM 56.8 °F 39.0 °F 51% 29.67 in 10.0 mi South 12.7 mph - N/A   Clear
3:55 AM 56.7 °F 39.2 °F 52% 29.66 in 10.0 mi South 15.0 mph - N/A   Clear
4:15 AM 56.3 °F 39.4 °F 53% 29.65 in 10.0 mi South 12.7 mph - N/A   Clear
4:35 AM 56.3 °F 39.6 °F 53% 29.67 in 10.0 mi SSW 11.5 mph - N/A   Clear
4:55 AM 55.6 °F 39.7 °F 55% 29.67 in 10.0 mi SSW 8.1 mph - N/A   Clear
5:15 AM 56.3 °F 40.3 °F 55% 29.65 in 10.0 mi SSW 16.1 mph - N/A   Clear
5:35 AM 56.7 °F 40.6 °F 55% 29.64 in 10.0 mi SSW 17.3 mph 23.0 mph N/A   Clear
5:55 AM 56.5 °F 40.8 °F 56% 29.64 in 10.0 mi SSW 13.8 mph - N/A   Clear
6:15 AM 55.8 °F 41.0 °F 58% 29.63 in 10.0 mi SSW 13.8 mph 19.6 mph N/A   Clear
6:35 AM 55.0 °F 41.2 °F 60% 29.63 in 10.0 mi South 13.8 mph 20.7 mph N/A   Clear
6:55 AM 54.7 °F 41.5 °F 61% 29.63 in 10.0 mi South 11.5 mph - N/A   Clear
7:15 AM 54.1 °F 41.9 °F 63% 29.63 in 10.0 mi SSW 10.4 mph 16.1 mph N/A   Clear
7:35 AM 54.1 °F 42.3 °F 64% 29.63 in 10.0 mi SSW 11.5 mph 18.4 mph N/A   Clear
7:55 AM 54.7 °F 42.8 °F 64% 29.64 in 10.0 mi SW 9.2 mph - N/A   Clear
8:15 AM 56.5 °F 42.8 °F 60% 29.64 in 10.0 mi SW 12.7 mph - N/A   Clear
8:35 AM 56.5 °F 43.2 °F 61% 29.64 in 10.0 mi SW 12.7 mph - N/A   Clear
8:55 AM 58.3 °F 43.3 °F 58% 29.64 in 10.0 mi SW 13.8 mph 20.7 mph N/A   Clear
9:15 AM 59.4 °F 43.0 °F 55% 29.64 in 10.0 mi WSW 17.3 mph 21.9 mph N/A   Clear
9:35 AM 59.2 °F 42.4 °F 54% 29.65 in 10.0 mi West 23.0 mph 29.9 mph N/A   Clear
9:55 AM 57.7 °F 41.2 °F 54% 29.65 in 10.0 mi West 18.4 mph 27.6 mph N/A   Scattered Clouds
10:15 AM 58.5 °F 36.9 °F 45% 29.66 in 10.0 mi WNW 23.0 mph 29.9 mph N/A   Mostly Cloudy
10:35 AM 59.9 °F 33.1 °F 36% 29.66 in 10.0 mi NW 24.2 mph 32.2 mph N/A   Scattered Clouds
10:55 AM 61.0 °F 32.5 °F 34% 29.67 in 10.0 mi NNW 21.9 mph - N/A   Scattered Clouds
11:15 AM 61.7 °F 33.1 °F 34% 29.68 in 10.0 mi NW 18.4 mph 26.5 mph N/A   Scattered Clouds
11:35 AM 60.8 °F 33.3 °F 36% 29.69 in 10.0 mi WNW 20.7 mph 25.3 mph N/A   Mostly Cloudy
11:55 AM 60.6 °F 32.9 °F 35% 29.70 in 10.0 mi WNW 20.7 mph 24.2 mph N/A   Mostly Cloudy
12:15 PM 62.8 °F 34.2 °F 34% 29.70 in 10.0 mi NW 16.1 mph 21.9 mph N/A   Mostly Cloudy
12:35 PM 66.0 °F 33.6 °F 30% 29.69 in 10.0 mi NW 18.4 mph 24.2 mph N/A   Scattered Clouds
12:55 PM 67.8 °F 34.3 °F 29% 29.69 in 10.0 mi NW 21.9 mph 27.6 mph N/A   Clear
1:15 PM 68.4 °F 36.3 °F 31% 29.68 in 10.0 mi NW 15.0 mph 27.6 mph N/A   Clear
1:35 PM 69.1 °F 36.1 °F 30% 29.69 in 10.0 mi WNW 21.9 mph 32.2 mph N/A   Scattered Clouds
1:55 PM 68.7 °F 35.2 °F 29% 29.69 in 10.0 mi NW 21.9 mph 29.9 mph N/A   Scattered Clouds
2:15 PM 68.2 °F 35.6 °F 30% 29.69 in 10.0 mi NW 20.7 mph 29.9 mph N/A   Mostly Cloudy
2:35 PM 70.2 °F 34.5 °F 27% 29.69 in 10.0 mi NW 20.7 mph 31.1 mph N/A   Mostly Cloudy
2:55 PM 70.3 °F 34.3 °F 27% 29.69 in 10.0 mi NW 18.4 mph 29.9 mph N/A   Mostly Cloudy
3:15 PM 69.6 °F 33.6 °F 27% 29.69 in 10.0 mi NW 19.6 mph 29.9 mph N/A   Scattered Clouds
3:35 PM 70.2 °F 34.3 °F 27% 29.70 in 10.0 mi NW 17.3 mph 24.2 mph N/A   Scattered Clouds
3:55 PM 72.7 °F 33.8 °F 24% 29.71 in 10.0 mi NNW 20.7 mph - N/A   Mostly Cloudy
4:15 PM 69.4 °F 33.1 °F 26% 29.71 in 10.0 mi NW 16.1 mph 26.5 mph N/A   Mostly Cloudy
4:35 PM 69.3 °F 33.3 °F 26% 29.72 in 10.0 mi NNW 18.4 mph 24.2 mph N/A   Scattered Clouds
4:55 PM 71.8 °F 33.1 °F 24% 29.73 in 10.0 mi North 18.4 mph 24.2 mph N/A   Mostly Cloudy
5:15 PM 71.6 °F 32.7 °F 24% 29.73 in 10.0 mi NNW 17.3 mph 21.9 mph N/A   Scattered Clouds
5:35 PM 71.4 °F 32.4 °F 24% 29.73 in 10.0 mi NNW 18.4 mph 24.2 mph N/A   Clear
5:55 PM 71.4 °F 32.2 °F 24% 29.74 in 10.0 mi NW 18.4 mph 25.3 mph N/A   Scattered Clouds
6:15 PM 70.9 °F 32.2 °F 24% 29.75 in 10.0 mi WNW 9.2 mph - N/A   Scattered Clouds
6:35 PM 69.6 °F 31.8 °F 25% 29.75 in 10.0 mi NNW 10.4 mph - N/A   Scattered Clouds
6:55 PM 69.3 °F 32.0 °F 25% 29.76 in 10.0 mi NNW 9.2 mph - N/A   Clear
7:15 PM 67.3 °F 32.4 °F 27% 29.76 in 10.0 mi NW 4.6 mph - N/A   Clear
7:35 PM 66.2 °F 32.4 °F 28% 29.76 in 10.0 mi Calm Calm - N/A   Clear
7:55 PM 64.2 °F 32.2 °F 30% 29.76 in 10.0 mi Calm Calm - N/A   Clear
8:15 PM 59.2 °F 34.3 °F 39% 29.76 in 10.0 mi SSW 4.6 mph - N/A   Clear
8:35 PM 59.5 °F 34.3 °F 39% 29.76 in 10.0 mi SSW 4.6 mph - N/A   Clear
8:55 PM 58.6 °F 34.7 °F 41% 29.77 in 10.0 mi South 5.8 mph - N/A   Clear
9:15 PM 58.5 °F 35.1 °F 42% 29.77 in 10.0 mi South 4.6 mph - N/A   Clear
9:35 PM 58.5 °F 34.9 °F 41% 29.77 in 10.0 mi South 4.6 mph - N/A   Clear
9:55 PM 57.2 °F 35.6 °F 44% 29.78 in 10.0 mi South 4.6 mph - N/A   Clear
10:15 PM 56.3 °F 35.6 °F 46% 29.78 in 10.0 mi SSW 3.5 mph - N/A   Clear
10:35 PM 55.8 °F 35.2 °F 46% 29.79 in 10.0 mi SSW 3.5 mph - N/A   Clear
10:55 PM 53.8 °F 34.9 °F 49% 29.79 in 10.0 mi SSW 3.5 mph - N/A   Clear
11:15 PM 55.4 °F 34.7 °F 46% 29.79 in 10.0 mi SW 4.6 mph - N/A   Clear
11:35 PM 54.7 °F 35.2 °F 48% 29.80 in 10.0 mi SW 4.6 mph - N/A   Clear
11:55 PM 51.6 °F 34.9 °F 53% 29.80 in 10.0 mi WSW 3.5 mph - N/A   Clear